Time,TemperatureF,DewpointF,PressureIn,WindDirection,WindDirectionDegrees,WindSpeedMPH,WindSpeedGustMPH,Humidity,HourlyPrecipIn,Conditions,Clouds,dailyrainin,SoftwareType,DateUTC
2013-05-29 00:01:00,61.3,58.1,30.05,NW,315,0.0,0.1,89,0.00,RA,,0.00,WeatherDisplay:10.37,2013-05-29 04:01:00,
2013-05-29 00:02:00,61.3,58.1,30.05,NW,315,0.0,0.1,89,0.00,RA,,0.00,WeatherDisplay:10.37,2013-05-29 04:02:00,
2013-05-29 00:05:00,61.3,58.1,30.06,NW,315,0.0,0.1,89,0.00,RA,,0.00,WeatherDisplay:10.37,2013-05-29 04:05:00,
2013-05-29 00:10:00,61.3,58.1,30.06,NW,315,0.0,0.1,89,0.00,OVC,,0.00,WeatherDisplay:10.37,2013-05-29 04:10:00,
2013-05-29 00:15:00,61.3,58.1,30.06,WNW,292,0.0,0.0,89,0.00,OVC,,0.00,WeatherDisplay:10.37,2013-05-29 04:15:00,
2013-05-29 00:20:00,61.3,58.1,30.06,SE,135,0.0,0.0,89,0.00,OVC,,0.00,WeatherDisplay:10.37,2013-05-29 04:20:00,
2013-05-29 00:25:00,61.3,58.1,30.05,NW,315,0.0,0.0,89,0.00,OVC,,0.00,WeatherDisplay:10.37,2013-05-29 04:25:00,
2013-05-29 00:30:00,61.5,58.2,30.05,SSE,158,0.0,0.0,89,0.00,OVC,,0.00,WeatherDisplay:10.37,2013-05-29 04:30:00,
2013-05-29 00:35:00,61.5,58.2,30.05,SSE,158,1.2,0.0,89,0.00,OVC,,0.00,WeatherDisplay:10.37,2013-05-29 04:35:00,
2013-05-29 00:40:00,61.5,58.2,30.05,ESE,112,0.0,0.0,89,0.00,OVC,,0.00,WeatherDisplay:10.37,2013-05-29 04:40:00,
2013-05-29 00:45:00,61.5,58.2,30.05,NE,45,0.0,0.0,89,0.00,OVC,,0.00,WeatherDisplay:10.37,2013-05-29 04:45:00,
2013-05-29 00:50:00,61.5,58.2,30.05,WSW,248,0.0,0.0,89,0.00,OVC,,0.00,WeatherDisplay:10.37,2013-05-29 04:50:00,
2013-05-29 00:55:00,61.7,58.4,30.05,NE,45,0.0,0.0,89,0.00,OVC,,0.00,WeatherDisplay:10.37,2013-05-29 04:55:00,
2013-05-29 01:00:00,61.7,58.4,30.05,NW,315,0.0,0.0,89,0.00,OVC,,0.00,WeatherDisplay:10.37,2013-05-29 05:00:00,
2013-05-29 01:05:00,61.7,58.4,30.05,NW,315,0.0,0.0,89,0.00,OVC,,0.00,WeatherDisplay:10.37,2013-05-29 05:05:00,
2013-05-29 01:10:00,61.5,58.2,30.05,West,270,0.0,0.0,89,0.00,OVC,,0.00,WeatherDisplay:10.37,2013-05-29 05:10:00,
2013-05-29 01:15:00,61.5,58.2,30.05,WSW,248,0.0,0.0,89,0.00,OVC,,0.00,WeatherDisplay:10.37,2013-05-29 05:15:00,
2013-05-29 01:20:00,61.5,58.2,30.05,SW,225,0.0,0.0,89,0.00,OVC,,0.00,WeatherDisplay:10.37,2013-05-29 05:20:00,
2013-05-29 01:25:00,61.5,58.2,30.03,WSW,248,0.0,0.0,89,0.00,OVC,,0.00,WeatherDisplay:10.37,2013-05-29 05:25:00,
2013-05-29 01:30:00,61.5,58.2,30.03,NNW,338,0.0,0.0,89,0.00,OVC,,0.00,WeatherDisplay:10.37,2013-05-29 05:30:00,
2013-05-29 01:35:00,61.7,58.4,30.03,NNW,338,0.0,0.0,89,0.00,OVC,,0.00,WeatherDisplay:10.37,2013-05-29 05:35:00,
2013-05-29 01:40:00,61.7,58.4,30.03,ESE,112,0.0,0.0,89,0.00,OVC,,0.00,WeatherDisplay:10.37,2013-05-29 05:40:00,
2013-05-29 01:45:00,61.7,58.4,30.03,West,270,0.0,0.0,89,0.00,OVC,,0.00,WeatherDisplay:10.37,2013-05-29 05:45:00,
2013-05-29 01:50:00,61.5,58.2,30.03,NNW,338,0.0,0.0,89,0.00,OVC,,0.00,WeatherDisplay:10.37,2013-05-29 05:50:00,
2013-05-29 01:55:00,61.5,58.2,30.03,North,0,1.2,0.0,89,0.00,OVC,,0.00,WeatherDisplay:10.37,2013-05-29 05:55:00,
2013-05-29 02:00:00,61.5,58.2,30.03,West,270,0.0,0.0,89,0.00,OVC,,0.00,WeatherDisplay:10.37,2013-05-29 06:00:00,
2013-05-29 02:05:00,61.5,58.2,30.02,NW,315,0.0,0.0,89,0.00,OVC,,0.00,WeatherDisplay:10.37,2013-05-29 06:05:00,
2013-05-29 02:10:00,61.5,58.2,30.02,WNW,292,0.0,0.0,89,0.00,OVC,,0.00,WeatherDisplay:10.37,2013-05-29 06:10:00,
2013-05-29 02:15:00,61.7,58.4,30.02,NW,315,0.0,0.0,89,0.00,OVC,,0.00,WeatherDisplay:10.37,2013-05-29 06:15:00,
2013-05-29 02:20:00,61.7,58.4,30.02,SW,225,0.0,0.0,89,0.00,OVC,,0.00,WeatherDisplay:10.37,2013-05-29 06:20:00,
2013-05-29 02:25:00,61.7,58.4,30.01,ESE,112,0.0,0.0,89,0.00,OVC,,0.00,WeatherDisplay:10.37,2013-05-29 06:25:00,
2013-05-29 02:30:00,61.7,58.4,30.01,NW,315,0.0,0.0,89,0.00,OVC,,0.00,WeatherDisplay:10.37,2013-05-29 06:30:00,
2013-05-29 02:35:00,61.7,58.4,30.01,NW,315,0.0,0.0,89,0.00,OVC,,0.00,WeatherDisplay:10.37,2013-05-29 06:35:00,
2013-05-29 02:40:00,61.7,58.4,30.01,NW,315,0.0,0.0,89,0.00,OVC,,0.00,WeatherDisplay:10.37,2013-05-29 06:40:00,
2013-05-29 02:45:00,61.7,58.4,30.00,West,270,0.0,0.0,89,0.00,OVC,,0.00,WeatherDisplay:10.37,2013-05-29 06:45:00,
2013-05-29 02:50:00,61.7,58.4,30.00,NNW,338,0.0,0.0,89,0.00,OVC,,0.00,WeatherDisplay:10.37,2013-05-29 06:50:00,
2013-05-29 02:55:00,61.7,58.4,30.00,WNW,292,0.0,0.0,89,0.00,OVC,,0.00,WeatherDisplay:10.37,2013-05-29 06:55:00,
2013-05-29 03:00:00,61.7,58.4,30.00,NW,315,0.0,0.0,89,0.00,OVC,,0.00,WeatherDisplay:10.37,2013-05-29 07:00:00,
2013-05-29 03:05:00,61.7,58.4,30.00,NW,315,0.0,0.0,89,0.00,OVC,,0.00,WeatherDisplay:10.37,2013-05-29 07:05:00,
2013-05-29 03:10:00,61.9,58.6,30.00,NW,315,0.0,0.0,89,0.00,OVC,,0.00,WeatherDisplay:10.37,2013-05-29 07:10:00,
2013-05-29 03:15:00,61.7,58.4,30.00,SE,135,0.0,0.0,89,0.00,OVC,,0.00,WeatherDisplay:10.37,2013-05-29 07:15:00,
2013-05-29 03:20:00,61.7,58.4,30.00,SE,135,0.0,0.0,89,0.00,OVC,,0.00,WeatherDisplay:10.37,2013-05-29 07:20:00,
2013-05-29 03:25:00,61.9,58.6,29.99,NNE,22,0.0,0.0,89,0.00,OVC,,0.00,WeatherDisplay:10.37,2013-05-29 07:25:00,
2013-05-29 03:30:00,61.9,58.6,29.99,West,270,0.0,0.0,89,0.00,OVC,,0.00,WeatherDisplay:10.37,2013-05-29 07:30:00,
2013-05-29 03:35:00,62.1,58.8,29.99,NE,45,0.0,0.0,89,0.00,OVC,,0.00,WeatherDisplay:10.37,2013-05-29 07:35:00,
2013-05-29 03:40:00,62.1,58.8,29.99,West,270,0.0,0.0,89,0.00,OVC,,0.00,WeatherDisplay:10.37,2013-05-29 07:40:00,
2013-05-29 03:45:00,61.9,58.6,29.99,WNW,292,0.0,0.0,89,0.00,OVC,,0.00,WeatherDisplay:10.37,2013-05-29 07:45:00,
2013-05-29 03:50:00,62.1,58.8,29.99,ENE,68,0.0,0.0,89,0.00,OVC,,0.00,WeatherDisplay:10.37,2013-05-29 07:50:00,
2013-05-29 03:55:00,62.1,58.8,29.99,West,270,0.0,0.0,89,0.00,OVC,,0.00,WeatherDisplay:10.37,2013-05-29 07:55:00,
2013-05-29 04:00:00,62.1,58.8,29.99,WSW,248,0.0,0.0,89,0.00,OVC,,0.00,WeatherDisplay:10.37,2013-05-29 08:00:00,
2013-05-29 04:05:00,61.9,58.6,30.00,WSW,248,0.0,0.0,89,0.00,OVC,,0.00,WeatherDisplay:10.37,2013-05-29 08:05:00,
2013-05-29 04:10:00,62.1,58.8,30.00,WSW,248,0.0,0.0,89,0.00,OVC,,0.00,WeatherDisplay:10.37,2013-05-29 08:10:00,
2013-05-29 04:15:00,62.1,58.8,30.00,ENE,68,0.0,0.0,89,0.00,OVC,,0.00,WeatherDisplay:10.37,2013-05-29 08:15:00,
2013-05-29 04:20:00,62.1,58.8,30.00,South,180,0.0,0.0,89,0.00,OVC,,0.00,WeatherDisplay:10.37,2013-05-29 08:20:00,
2013-05-29 04:25:00,62.1,58.8,30.00,ENE,68,0.0,0.0,89,0.00,OVC,,0.00,WeatherDisplay:10.37,2013-05-29 08:25:00,
2013-05-29 04:30:00,62.1,58.8,30.00,South,180,0.0,0.0,89,0.00,OVC,,0.00,WeatherDisplay:10.37,2013-05-29 08:30:00,
2013-05-29 04:35:00,62.1,58.8,30.00,South,180,0.0,0.0,89,0.00,OVC,,0.00,WeatherDisplay:10.37,2013-05-29 08:35:00,
2013-05-29 04:40:00,61.9,58.6,30.00,SW,225,0.0,0.0,89,0.00,OVC,,0.00,WeatherDisplay:10.37,2013-05-29 08:40:00,
2013-05-29 04:45:00,61.9,58.6,29.99,South,180,0.0,0.0,89,0.00,OVC,,0.00,WeatherDisplay:10.37,2013-05-29 08:45:00,
2013-05-29 04:50:00,61.7,58.4,29.99,West,270,0.0,0.0,89,0.00,OVC,,0.00,WeatherDisplay:10.37,2013-05-29 08:50:00,
2013-05-29 04:55:00,61.9,58.9,29.99,North,0,0.0,0.0,90,0.00,OVC,,0.00,WeatherDisplay:10.37,2013-05-29 08:55:00,
2013-05-29 05:00:00,61.9,58.6,29.99,WNW,292,0.0,0.0,89,0.00,OVC,,0.00,WeatherDisplay:10.37,2013-05-29 09:00:00,
2013-05-29 05:05:00,62.1,58.8,29.99,WNW,292,0.0,0.0,89,0.00,OVC,,0.00,WeatherDisplay:10.37,2013-05-29 09:05:00,
2013-05-29 05:10:00,61.9,58.6,29.99,NW,315,0.0,0.0,89,0.00,OVC,,0.00,WeatherDisplay:10.37,2013-05-29 09:10:00,
2013-05-29 05:15:00,62.1,58.8,29.99,WNW,292,0.0,0.0,89,0.00,OVC,,0.00,WeatherDisplay:10.37,2013-05-29 09:15:00,
2013-05-29 05:20:00,62.1,58.8,29.99,West,270,0.0,0.0,89,0.00,OVC,,0.00,WeatherDisplay:10.37,2013-05-29 09:20:00,
2013-05-29 05:25:00,62.1,58.8,30.00,NW,315,0.0,0.0,89,0.00,OVC,,0.00,WeatherDisplay:10.37,2013-05-29 09:25:00,
2013-05-29 05:30:00,62.1,59.1,30.00,WNW,292,0.0,0.0,90,0.00,OVC,,0.00,WeatherDisplay:10.37,2013-05-29 09:30:00,
2013-05-29 05:35:00,62.1,59.1,30.00,NW,315,0.0,0.0,90,0.00,OVC,,0.00,WeatherDisplay:10.37,2013-05-29 09:35:00,
2013-05-29 05:40:00,62.1,59.1,30.00,NNE,22,0.0,0.0,90,0.00,OVC,,0.00,WeatherDisplay:10.37,2013-05-29 09:40:00,
2013-05-29 05:45:00,61.9,58.6,30.00,West,270,0.0,0.0,89,0.00,OVC,,0.00,WeatherDisplay:10.37,2013-05-29 09:45:00,
2013-05-29 05:50:00,62.1,59.1,30.00,WSW,248,0.0,0.0,90,0.00,OVC,,0.00,WeatherDisplay:10.37,2013-05-29 09:50:00,
2013-05-29 05:55:00,62.1,59.1,30.00,SW,225,0.0,0.0,90,0.00,OVC,,0.00,WeatherDisplay:10.37,2013-05-29 09:55:00,
2013-05-29 06:00:00,62.1,59.1,30.00,NNW,338,0.0,0.0,90,0.00,OVC,,0.00,WeatherDisplay:10.37,2013-05-29 10:00:00,
2013-05-29 06:05:00,61.9,58.9,30.00,NW,315,0.0,0.0,90,0.00,OVC,,0.00,WeatherDisplay:10.37,2013-05-29 10:05:00,
2013-05-29 06:10:00,62.1,59.1,30.00,NW,315,0.0,0.0,90,0.00,OVC,,0.00,WeatherDisplay:10.37,2013-05-29 10:10:00,
2013-05-29 06:15:00,62.1,59.1,30.00,West,270,1.2,1.2,90,0.00,OVC,,0.00,WeatherDisplay:10.37,2013-05-29 10:15:00,
2013-05-29 06:20:00,62.1,59.1,30.00,West,270,0.0,0.1,90,0.00,OVC,,0.00,WeatherDisplay:10.37,2013-05-29 10:20:00,
2013-05-29 06:25:00,62.1,59.1,30.00,WNW,292,0.0,0.0,90,0.00,OVC,,0.00,WeatherDisplay:10.37,2013-05-29 10:25:00,
2013-05-29 06:30:00,62.1,59.1,30.00,NW,315,0.0,0.0,90,0.00,OVC,,0.00,WeatherDisplay:10.37,2013-05-29 10:30:00,
2013-05-29 06:35:00,62.1,59.1,30.00,West,270,0.0,0.0,90,0.00,OVC,,0.00,WeatherDisplay:10.37,2013-05-29 10:35:00,
2013-05-29 06:40:00,62.1,59.1,30.00,NW,315,0.0,0.0,90,0.00,OVC,,0.00,WeatherDisplay:10.37,2013-05-29 10:40:00,
2013-05-29 06:45:00,62.1,59.1,30.01,West,270,0.0,0.0,90,0.00,OVC,,0.00,WeatherDisplay:10.37,2013-05-29 10:45:00,
2013-05-29 06:50:00,62.1,59.1,30.01,West,270,0.0,0.0,90,0.00,OVC,,0.00,WeatherDisplay:10.37,2013-05-29 10:50:00,
2013-05-29 06:55:00,62.1,59.1,30.01,North,0,0.0,0.0,90,0.00,OVC,,0.00,WeatherDisplay:10.37,2013-05-29 10:55:00,
2013-05-29 07:00:00,62.2,59.3,30.01,West,270,0.0,0.0,90,0.00,OVC,,0.00,WeatherDisplay:10.37,2013-05-29 11:00:00,
2013-05-29 07:05:00,62.4,59.4,30.01,NNE,22,0.0,0.0,90,0.00,OVC,,0.00,WeatherDisplay:10.37,2013-05-29 11:05:00,
2013-05-29 07:10:00,62.2,59.3,30.01,West,270,0.0,0.0,90,0.00,OVC,,0.00,WeatherDisplay:10.37,2013-05-29 11:10:00,
2013-05-29 07:15:00,62.2,59.3,30.01,NW,315,0.0,0.0,90,0.00,OVC,,0.00,WeatherDisplay:10.37,2013-05-29 11:15:00,
2013-05-29 07:20:00,62.2,59.3,30.01,NW,315,2.3,2.3,90,0.00,OVC,,0.00,WeatherDisplay:10.37,2013-05-29 11:20:00,
2013-05-29 07:25:00,62.4,59.4,30.01,NE,45,0.0,0.1,90,0.00,OVC,,0.00,WeatherDisplay:10.37,2013-05-29 11:25:00,
2013-05-29 07:30:00,62.4,59.4,30.01,West,270,0.0,0.0,90,0.00,OVC,,0.00,WeatherDisplay:10.37,2013-05-29 11:30:00,
2013-05-29 07:35:00,62.2,59.3,30.01,NNW,338,0.0,0.0,90,0.00,OVC,,0.00,WeatherDisplay:10.37,2013-05-29 11:35:00,
2013-05-29 07:40:00,62.4,59.4,30.01,WNW,292,0.0,0.0,90,0.00,OVC,,0.00,WeatherDisplay:10.37,2013-05-29 11:40:00,
2013-05-29 07:45:00,62.4,59.4,30.02,NW,315,0.0,0.0,90,0.00,OVC,,0.00,WeatherDisplay:10.37,2013-05-29 11:45:00,
2013-05-29 07:50:00,62.6,59.6,30.02,WNW,292,0.0,0.0,90,0.00,OVC,,0.00,WeatherDisplay:10.37,2013-05-29 11:50:00,
2013-05-29 07:55:00,62.4,59.4,30.02,WNW,292,0.0,0.0,90,0.00,OVC,,0.00,WeatherDisplay:10.37,2013-05-29 11:55:00,
2013-05-29 08:00:00,62.4,59.4,30.02,WSW,248,0.0,0.0,90,0.00,OVC,,0.00,WeatherDisplay:10.37,2013-05-29 12:00:00,
2013-05-29 08:05:00,62.8,59.8,30.02,West,270,0.0,0.0,90,0.00,OVC,,0.00,WeatherDisplay:10.37,2013-05-29 12:05:00,
2013-05-29 08:10:00,62.6,59.6,30.02,SSE,158,0.0,0.0,90,0.00,OVC,,0.00,WeatherDisplay:10.37,2013-05-29 12:10:00,
2013-05-29 08:15:00,62.8,59.8,30.02,South,180,0.0,0.0,90,0.00,OVC,,0.00,WeatherDisplay:10.37,2013-05-29 12:15:00,
2013-05-29 08:20:00,62.8,59.8,30.02,SW,225,0.0,0.0,90,0.00,OVC,,0.00,WeatherDisplay:10.37,2013-05-29 12:20:00,
2013-05-29 08:25:00,62.8,59.8,30.01,SE,135,0.0,0.0,90,0.00,OVC,,0.00,WeatherDisplay:10.37,2013-05-29 12:25:00,
2013-05-29 08:30:00,63.0,60.0,30.01,South,180,0.0,0.0,90,0.00,OVC,,0.00,WeatherDisplay:10.37,2013-05-29 12:30:00,
2013-05-29 08:35:00,63.0,60.0,30.01,SW,225,0.0,0.0,90,0.00,OVC,,0.00,WeatherDisplay:10.37,2013-05-29 12:35:00,
2013-05-29 08:40:00,63.1,60.2,30.01,South,180,0.0,0.0,90,0.00,OVC,,0.00,WeatherDisplay:10.37,2013-05-29 12:40:00,
2013-05-29 08:45:00,63.3,60.3,30.02,SW,225,0.0,0.1,90,0.00,OVC,,0.00,WeatherDisplay:10.37,2013-05-29 12:45:00,
2013-05-29 08:50:00,63.3,60.3,30.02,SW,225,0.0,0.1,90,0.00,OVC,,0.00,WeatherDisplay:10.37,2013-05-29 12:50:00,
2013-05-29 08:55:00,63.5,60.5,30.02,WSW,248,0.0,0.0,90,0.00,OVC,,0.00,WeatherDisplay:10.37,2013-05-29 12:55:00,
2013-05-29 09:00:00,63.5,60.5,30.02,SW,225,0.0,0.0,90,0.00,OVC,,0.00,WeatherDisplay:10.37,2013-05-29 13:00:00,
2013-05-29 09:05:00,63.7,60.7,30.03,West,270,0.0,0.0,90,0.00,OVC,,0.00,WeatherDisplay:10.37,2013-05-29 13:05:00,
2013-05-29 09:10:00,64.0,61.0,30.03,WSW,248,0.0,0.0,90,0.00,OVC,,0.00,WeatherDisplay:10.37,2013-05-29 13:10:00,
2013-05-29 09:15:00,64.2,61.2,30.03,WNW,292,0.0,0.0,90,0.00,OVC,,0.00,WeatherDisplay:10.37,2013-05-29 13:15:00,
2013-05-29 09:20:00,64.0,61.0,30.03,SW,225,0.0,0.1,90,0.00,OVC,,0.00,WeatherDisplay:10.37,2013-05-29 13:20:00,
2013-05-29 09:25:00,64.2,61.2,30.02,SW,225,2.3,2.3,90,0.00,OVC,,0.00,WeatherDisplay:10.37,2013-05-29 13:25:00,
2013-05-29 09:30:00,64.6,61.6,30.02,SW,225,0.0,0.5,90,0.00,OVC,,0.00,WeatherDisplay:10.37,2013-05-29 13:30:00,
2013-05-29 09:35:00,64.6,61.6,30.02,South,180,2.3,2.3,90,0.00,OVC,,0.00,WeatherDisplay:10.37,2013-05-29 13:35:00,
2013-05-29 09:40:00,64.6,61.6,30.02,SW,225,0.0,0.3,90,0.00,OVC,,0.00,WeatherDisplay:10.37,2013-05-29 13:40:00,
2013-05-29 09:45:00,64.8,61.8,30.03,SW,225,0.0,0.3,90,0.00,OVC,,0.00,WeatherDisplay:10.37,2013-05-29 13:45:00,
2013-05-29 09:50:00,64.9,61.9,30.03,NW,315,0.0,0.1,90,0.00,OVC,,0.00,WeatherDisplay:10.37,2013-05-29 13:50:00,
2013-05-29 09:55:00,65.3,62.3,30.03,NW,315,1.2,1.2,90,0.00,OVC,,0.00,WeatherDisplay:10.37,2013-05-29 13:55:00,
2013-05-29 10:00:00,65.3,62.3,30.03,WNW,292,2.3,2.3,90,0.00,OVC,,0.00,WeatherDisplay:10.37,2013-05-29 14:00:00,
2013-05-29 10:05:00,65.3,62.3,30.03,SSW,202,2.3,2.3,90,0.00,OVC,,0.00,WeatherDisplay:10.37,2013-05-29 14:05:00,
2013-05-29 10:10:00,65.5,62.5,30.03,SSE,158,0.0,0.2,90,0.00,OVC,,0.00,WeatherDisplay:10.37,2013-05-29 14:10:00,
2013-05-29 10:15:00,65.5,62.5,30.03,SW,225,1.2,1.2,90,0.00,OVC,,0.00,WeatherDisplay:10.37,2013-05-29 14:15:00,
2013-05-29 10:20:00,65.8,62.8,30.03,SSW,202,1.2,1.2,90,0.00,OVC,,0.00,WeatherDisplay:10.37,2013-05-29 14:20:00,
2013-05-29 10:25:00,66.0,62.7,30.01,South,180,3.5,3.5,89,0.00,OVC,,0.00,WeatherDisplay:10.37,2013-05-29 14:25:00,
2013-05-29 10:30:00,66.4,63.4,30.01,SSW,202,0.0,1.0,90,0.00,OVC,,0.00,WeatherDisplay:10.37,2013-05-29 14:30:00,
2013-05-29 10:35:00,66.7,63.7,30.01,SSW,202,0.0,0.5,90,0.00,OVC,,0.00,WeatherDisplay:10.37,2013-05-29 14:35:00,
2013-05-29 10:40:00,66.9,63.9,30.01,WNW,292,1.2,1.2,90,0.00,OVC,,0.00,WeatherDisplay:10.37,2013-05-29 14:40:00,
2013-05-29 10:45:00,66.9,63.9,30.02,South,180,1.2,1.2,90,0.00,OVC,,0.00,WeatherDisplay:10.37,2013-05-29 14:45:00,
2013-05-29 10:50:00,67.3,63.9,30.02,South,180,0.0,0.3,89,0.00,OVC,,0.00,WeatherDisplay:10.37,2013-05-29 14:50:00,
2013-05-29 10:55:00,67.3,63.9,30.02,WNW,292,1.2,1.2,89,0.00,OVC,,0.00,WeatherDisplay:10.37,2013-05-29 14:55:00,
2013-05-29 11:00:00,67.6,64.3,30.02,South,180,0.0,0.6,89,0.00,OVC,,0.00,WeatherDisplay:10.37,2013-05-29 15:00:00,
2013-05-29 11:05:00,67.8,64.5,30.02,West,270,2.3,2.3,89,0.00,OVC,,0.00,WeatherDisplay:10.37,2013-05-29 15:05:00,
2013-05-29 11:10:00,68.0,64.6,30.02,NE,45,1.2,1.2,89,0.00,OVC,,0.00,WeatherDisplay:10.37,2013-05-29 15:10:00,
2013-05-29 11:15:00,68.5,65.2,30.02,South,180,1.8,1.8,89,0.00,OVC,,0.00,WeatherDisplay:10.37,2013-05-29 15:15:00,
2013-05-29 11:20:00,68.7,65.3,30.02,WNW,292,2.3,2.3,89,0.00,OVC,,0.00,WeatherDisplay:10.37,2013-05-29 15:20:00,
2013-05-29 11:25:00,69.1,65.7,30.02,WSW,248,2.3,2.3,89,0.00,OVC,,0.00,WeatherDisplay:10.37,2013-05-29 15:25:00,
2013-05-29 11:30:00,69.3,65.6,30.02,WNW,292,2.3,2.3,88,0.00,OVC,,0.00,WeatherDisplay:10.37,2013-05-29 15:30:00,
2013-05-29 11:35:00,69.6,65.9,30.02,SSE,158,1.2,1.2,88,0.00,OVC,,0.00,WeatherDisplay:10.37,2013-05-29 15:35:00,
2013-05-29 11:40:00,69.6,65.6,30.02,SSW,202,3.5,3.5,87,0.00,OVC,,0.00,WeatherDisplay:10.37,2013-05-29 15:40:00,
2013-05-29 11:45:00,69.8,65.8,30.01,WNW,292,2.3,2.3,87,0.00,OVC,,0.00,WeatherDisplay:10.37,2013-05-29 15:45:00,
2013-05-29 11:50:00,70.0,65.9,30.01,SSE,158,2.3,2.3,87,0.00,OVC,,0.00,WeatherDisplay:10.37,2013-05-29 15:50:00,
2013-05-29 11:55:00,70.0,65.9,30.01,WSW,248,3.5,3.5,87,0.00,OVC,,0.00,WeatherDisplay:10.37,2013-05-29 15:55:00,
2013-05-29 12:00:00,70.0,65.9,30.01,WSW,248,2.4,2.4,87,0.00,OVC,,0.00,WeatherDisplay:10.37,2013-05-29 16:00:00,
2013-05-29 12:05:00,70.3,66.0,30.01,WSW,248,2.3,2.3,86,0.00,OVC,,0.00,WeatherDisplay:10.37,2013-05-29 16:05:00,
2013-05-29 12:10:00,70.2,65.8,30.01,WSW,248,2.3,2.3,86,0.00,OVC,,0.00,WeatherDisplay:10.37,2013-05-29 16:10:00,
2013-05-29 12:15:00,70.7,66.3,30.01,SW,225,2.3,2.3,86,0.00,OVC,,0.00,WeatherDisplay:10.37,2013-05-29 16:15:00,
2013-05-29 12:20:00,70.9,66.5,30.01,SW,225,0.0,1.5,86,0.00,OVC,,0.00,WeatherDisplay:10.37,2013-05-29 16:20:00,
2013-05-29 12:25:00,70.9,66.1,30.01,South,180,4.6,4.6,85,0.00,OVC,,0.00,WeatherDisplay:10.37,2013-05-29 16:25:00,
2013-05-29 12:30:00,71.4,66.7,30.01,SW,225,2.3,2.3,85,0.00,OVC,,0.00,WeatherDisplay:10.37,2013-05-29 16:30:00,
2013-05-29 12:35:00,71.6,66.8,30.01,West,270,2.3,2.3,85,0.00,OVC,,0.00,WeatherDisplay:10.37,2013-05-29 16:35:00,
2013-05-29 12:40:00,71.8,67.0,30.01,WNW,292,4.6,4.6,85,0.00,OVC,,0.00,WeatherDisplay:10.37,2013-05-29 16:40:00,
2013-05-29 12:45:00,72.1,67.0,30.00,NNW,338,2.3,2.3,84,0.00,OVC,,0.00,WeatherDisplay:10.37,2013-05-29 16:45:00,
2013-05-29 12:50:00,72.3,67.2,30.00,SSW,202,2.3,2.3,84,0.00,OVC,,0.00,WeatherDisplay:10.37,2013-05-29 16:50:00,
2013-05-29 12:55:00,72.7,67.6,30.00,South,180,2.3,2.3,84,0.00,OVC,,0.00,WeatherDisplay:10.37,2013-05-29 16:55:00,
2013-05-29 13:00:00,72.9,67.4,30.00,WNW,292,3.5,3.5,83,0.00,OVC,,0.00,WeatherDisplay:10.37,2013-05-29 17:00:00,
2013-05-29 13:05:00,72.9,67.7,29.99,SW,225,0.0,1.2,84,0.00,OVC,,0.00,WeatherDisplay:10.37,2013-05-29 17:05:00,
2013-05-29 13:10:00,73.0,67.9,29.99,WNW,292,3.5,3.5,84,0.00,OVC,,0.00,WeatherDisplay:10.37,2013-05-29 17:10:00,
2013-05-29 13:15:00,73.0,67.9,29.99,West,270,4.6,4.6,84,0.00,OVC,,0.00,WeatherDisplay:10.37,2013-05-29 17:15:00,
2013-05-29 13:20:00,73.4,67.9,29.99,WNW,292,2.3,2.3,83,0.00,OVC,,0.00,WeatherDisplay:10.37,2013-05-29 17:20:00,
2013-05-29 13:25:00,73.8,68.3,30.00,WNW,292,2.3,2.3,83,0.00,OVC,,0.00,WeatherDisplay:10.37,2013-05-29 17:25:00,
2013-05-29 13:30:00,74.1,68.6,30.00,NW,315,2.3,2.3,83,0.00,OVC,,0.00,WeatherDisplay:10.37,2013-05-29 17:30:00,
2013-05-29 13:35:00,74.3,68.4,30.00,West,270,1.2,1.6,82,0.00,OVC,,0.00,WeatherDisplay:10.37,2013-05-29 17:35:00,
2013-05-29 13:40:00,74.8,68.6,30.00,South,180,2.3,2.3,81,0.00,OVC,,0.00,WeatherDisplay:10.37,2013-05-29 17:40:00,
2013-05-29 13:45:00,75.2,69.0,29.99,South,180,1.2,1.5,81,0.00,OVC,,0.00,WeatherDisplay:10.37,2013-05-29 17:45:00,
2013-05-29 13:50:00,75.4,69.5,29.99,SW,225,1.2,1.2,82,0.00,OVC,,0.00,WeatherDisplay:10.37,2013-05-29 17:50:00,
2013-05-29 13:55:00,75.6,69.3,29.99,NW,315,2.3,2.3,81,0.00,OVC,,0.00,WeatherDisplay:10.37,2013-05-29 17:55:00,
2013-05-29 14:00:00,75.9,70.0,29.99,NW,315,1.2,1.2,82,0.00,OVC,,0.00,WeatherDisplay:10.37,2013-05-29 18:00:00,
2013-05-29 14:05:00,76.5,70.2,29.99,WNW,292,2.3,2.3,81,0.00,OVC,,0.00,WeatherDisplay:10.37,2013-05-29 18:05:00,
2013-05-29 14:10:00,76.6,69.6,29.99,SW,225,3.5,3.5,79,0.00,OVC,,0.00,WeatherDisplay:10.37,2013-05-29 18:10:00,
2013-05-29 14:15:00,77.4,70.3,29.99,SE,135,2.3,2.3,79,0.00,OVC,,0.00,WeatherDisplay:10.37,2013-05-29 18:15:00,
2013-05-29 14:20:00,77.9,70.5,29.99,WSW,248,3.5,3.5,78,0.00,OVC,,0.00,WeatherDisplay:10.37,2013-05-29 18:20:00,
2013-05-29 14:25:00,78.1,71.0,29.98,WSW,248,2.3,2.3,79,0.00,OVC,,0.00,WeatherDisplay:10.37,2013-05-29 18:25:00,
2013-05-29 14:30:00,78.6,70.8,29.98,WSW,248,2.3,2.3,77,0.00,OVC,,0.00,WeatherDisplay:10.37,2013-05-29 18:30:00,
2013-05-29 14:35:00,79.0,70.8,29.98,SW,225,2.3,2.3,76,0.00,OVC,,0.00,WeatherDisplay:10.37,2013-05-29 18:35:00,
2013-05-29 14:40:00,79.2,71.3,29.98,West,270,4.3,4.3,77,0.00,OVC,,0.00,WeatherDisplay:10.37,2013-05-29 18:40:00,
2013-05-29 14:45:00,79.3,70.7,29.98,WSW,248,2.3,2.3,75,0.00,OVC,,0.00,WeatherDisplay:10.37,2013-05-29 18:45:00,
2013-05-29 14:50:00,79.9,70.8,29.98,South,180,3.5,3.5,74,0.00,OVC,,0.00,WeatherDisplay:10.37,2013-05-29 18:50:00,
2013-05-29 14:55:00,80.4,70.6,29.98,WSW,248,5.8,5.8,72,0.00,OVC,,0.00,WeatherDisplay:10.37,2013-05-29 18:55:00,
2013-05-29 15:00:00,81.0,70.7,29.98,West,270,3.5,3.5,71,0.00,OVC,,0.00,WeatherDisplay:10.37,2013-05-29 19:00:00,
2013-05-29 15:05:00,81.1,70.4,29.97,West,270,4.6,4.6,70,0.00,OVC,,0.00,WeatherDisplay:10.37,2013-05-29 19:05:00,
2013-05-29 15:10:00,81.1,70.8,29.97,West,270,1.5,1.7,71,0.00,OVC,,0.00,WeatherDisplay:10.37,2013-05-29 19:10:00,
2013-05-29 15:15:00,81.5,70.3,29.97,WSW,248,4.6,4.6,69,0.00,OVC,,0.00,WeatherDisplay:10.37,2013-05-29 19:15:00,
2013-05-29 15:20:00,81.7,70.5,29.97,SSW,202,4.6,4.6,69,0.00,OVC,,0.00,WeatherDisplay:10.37,2013-05-29 19:20:00,
2013-05-29 15:25:00,82.0,70.4,29.96,West,270,3.5,3.5,68,0.00,OVC,,0.00,WeatherDisplay:10.37,2013-05-29 19:25:00,
2013-05-29 15:30:00,81.9,70.3,29.96,West,270,4.0,4.0,68,0.00,OVC,,0.00,WeatherDisplay:10.37,2013-05-29 19:30:00,
2013-05-29 15:35:00,82.0,70.4,29.96,WNW,292,4.6,4.6,68,0.00,OVC,,0.00,WeatherDisplay:10.37,2013-05-29 19:35:00,
2013-05-29 15:41:00,82.4,69.9,29.96,WSW,248,4.6,4.6,66,0.00,OVC,,0.00,WeatherDisplay:10.37,2013-05-29 19:41:00,
2013-05-29 15:46:00,82.6,70.1,29.96,WSW,248,3.5,3.5,66,0.00,OVC,,0.00,WeatherDisplay:10.37,2013-05-29 19:46:00,
2013-05-29 15:51:00,82.6,69.2,29.96,South,180,8.1,8.1,64,0.00,OVC,,0.00,WeatherDisplay:10.37,2013-05-29 19:51:00,
2013-05-29 15:56:00,82.9,69.0,29.96,South,180,3.5,3.5,63,0.00,OVC,,0.00,WeatherDisplay:10.37,2013-05-29 19:56:00,
2013-05-29 16:01:00,83.1,69.7,29.96,NW,315,4.6,4.6,64,0.00,OVC,,0.00,WeatherDisplay:10.37,2013-05-29 20:01:00,
2013-05-29 16:06:00,83.1,69.7,29.95,West,270,4.6,4.6,64,0.00,OVC,,0.00,WeatherDisplay:10.37,2013-05-29 20:06:00,
2013-05-29 16:11:00,83.1,69.7,29.95,NW,315,4.9,4.9,64,0.00,OVC,,0.00,WeatherDisplay:10.37,2013-05-29 20:11:00,
2013-05-29 16:16:00,83.1,69.7,29.95,WNW,292,2.3,2.6,64,0.00,OVC,,0.00,WeatherDisplay:10.37,2013-05-29 20:16:00,
2013-05-29 16:21:00,82.8,68.9,29.95,SW,225,4.6,4.6,63,0.00,OVC,,0.00,WeatherDisplay:10.37,2013-05-29 20:21:00,
2013-05-29 16:26:00,83.1,68.7,29.94,SW,225,5.8,5.8,62,0.00,OVC,,0.00,WeatherDisplay:10.37,2013-05-29 20:26:00,
2013-05-29 16:31:00,83.7,69.3,29.94,SSW,202,3.5,3.5,62,0.00,OVC,,0.00,WeatherDisplay:10.37,2013-05-29 20:31:00,
2013-05-29 16:36:00,83.7,68.8,29.94,SSW,202,3.5,3.5,61,0.00,OVC,,0.00,WeatherDisplay:10.37,2013-05-29 20:36:00,
2013-05-29 16:41:00,83.8,69.0,29.94,South,180,4.6,4.6,61,0.00,OVC,,0.00,WeatherDisplay:10.37,2013-05-29 20:41:00,
2013-05-29 16:46:00,84.2,68.8,29.93,West,270,8.1,8.1,60,0.00,OVC,,0.00,WeatherDisplay:10.37,2013-05-29 20:46:00,
2013-05-29 16:51:00,84.7,68.8,29.93,SW,225,3.5,3.5,59,0.00,OVC,,0.00,WeatherDisplay:10.37,2013-05-29 20:51:00,
2013-05-29 16:56:00,84.4,69.0,29.93,West,270,2.3,2.3,60,0.00,OVC,,0.00,WeatherDisplay:10.37,2013-05-29 20:56:00,
2013-05-29 17:01:00,84.7,68.8,29.93,South,180,8.1,8.1,59,0.00,OVC,,0.00,WeatherDisplay:10.37,2013-05-29 21:01:00,
2013-05-29 17:06:00,84.6,68.7,29.93,ESE,112,3.5,3.5,59,0.00,OVC,,0.00,WeatherDisplay:10.37,2013-05-29 21:06:00,
2013-05-29 17:11:00,84.6,68.7,29.93,SSE,158,4.6,4.6,59,0.00,OVC,,0.00,WeatherDisplay:10.37,2013-05-29 21:11:00,
2013-05-29 17:16:00,84.4,68.5,29.93,SW,225,3.5,3.5,59,0.00,OVC,,0.00,WeatherDisplay:10.37,2013-05-29 21:16:00,
2013-05-29 17:21:00,84.2,68.3,29.93,West,270,2.3,2.3,59,0.00,OVC,,0.00,WeatherDisplay:10.37,2013-05-29 21:21:00,
2013-05-29 17:26:00,83.8,67.5,29.93,South,180,4.6,4.6,58,0.00,OVC,,0.00,WeatherDisplay:10.37,2013-05-29 21:26:00,
2013-05-29 17:31:00,83.8,67.0,29.93,West,270,2.3,2.3,57,0.00,OVC,,0.00,WeatherDisplay:10.37,2013-05-29 21:31:00,
2013-05-29 17:36:00,83.8,67.0,29.93,SSW,202,2.3,2.3,57,0.00,OVC,,0.00,WeatherDisplay:10.37,2013-05-29 21:36:00,
2013-05-29 17:41:00,84.0,67.7,29.93,West,270,3.5,3.5,58,0.00,OVC,,0.00,WeatherDisplay:10.37,2013-05-29 21:41:00,
2013-05-29 17:46:00,83.8,67.5,29.93,South,180,2.3,2.3,58,0.00,OVC,,0.00,WeatherDisplay:10.37,2013-05-29 21:46:00,
2013-05-29 17:51:00,84.2,67.8,29.93,SSW,202,3.5,3.5,58,0.00,OVC,,0.00,WeatherDisplay:10.37,2013-05-29 21:51:00,
2013-05-29 17:56:00,84.4,68.0,29.93,WSW,248,3.5,3.5,58,0.00,OVC,,0.00,WeatherDisplay:10.37,2013-05-29 21:56:00,
2013-05-29 18:01:00,84.2,67.3,29.93,West,270,4.6,4.6,57,0.00,OVC,,0.00,WeatherDisplay:10.37,2013-05-29 22:01:00,
2013-05-29 18:06:00,84.4,68.0,29.92,WSW,248,2.3,2.3,58,0.00,OVC,,0.00,WeatherDisplay:10.37,2013-05-29 22:06:00,
2013-05-29 18:11:00,84.0,67.7,29.92,West,270,2.3,2.3,58,0.00,OVC,,0.00,WeatherDisplay:10.37,2013-05-29 22:11:00,
2013-05-29 18:16:00,84.0,67.7,29.92,South,180,2.3,2.3,58,0.00,OVC,,0.00,WeatherDisplay:10.37,2013-05-29 22:16:00,
2013-05-29 18:21:00,83.8,67.0,29.92,SW,225,3.5,3.5,57,0.00,OVC,,0.00,WeatherDisplay:10.37,2013-05-29 22:21:00,
2013-05-29 18:26:00,84.0,66.6,29.92,SW,225,8.4,8.4,56,0.00,OVC,,0.00,WeatherDisplay:10.37,2013-05-29 22:26:00,
2013-05-29 18:31:00,84.4,66.4,29.92,SSW,202,5.6,5.6,55,0.00,OVC,,0.00,WeatherDisplay:10.37,2013-05-29 22:31:00,
2013-05-29 18:36:00,84.7,66.8,29.92,WSW,248,4.6,4.6,55,0.00,OVC,,0.00,WeatherDisplay:10.37,2013-05-29 22:36:00,
2013-05-29 18:41:00,84.4,66.4,29.92,SW,225,2.3,2.3,55,0.00,OVC,,0.00,WeatherDisplay:10.37,2013-05-29 22:41:00,
2013-05-29 18:46:00,84.2,66.3,29.92,WSW,248,2.3,2.3,55,0.00,OVC,,0.00,WeatherDisplay:10.37,2013-05-29 22:46:00,
2013-05-29 18:51:00,84.0,66.1,29.92,WSW,248,2.3,2.3,55,0.00,OVC,,0.00,WeatherDisplay:10.37,2013-05-29 22:51:00,
2013-05-29 18:56:00,84.0,66.6,29.92,WSW,248,2.6,2.6,56,0.00,OVC,,0.00,WeatherDisplay:10.37,2013-05-29 22:56:00,
2013-05-29 19:01:00,83.7,66.3,29.92,SW,225,2.8,2.8,56,0.00,OVC,,0.00,WeatherDisplay:10.37,2013-05-29 23:01:00,
2013-05-29 19:06:00,83.7,65.8,29.92,West,270,3.5,3.5,55,0.00,OVC,,0.00,WeatherDisplay:10.37,2013-05-29 23:06:00,
2013-05-29 19:11:00,83.5,66.1,29.92,SW,225,2.3,2.3,56,0.00,OVC,,0.00,WeatherDisplay:10.37,2013-05-29 23:11:00,
2013-05-29 19:16:00,83.1,65.8,29.92,SW,225,1.2,1.6,56,0.00,OVC,,0.00,WeatherDisplay:10.37,2013-05-29 23:16:00,
2013-05-29 19:21:00,83.3,65.4,29.92,SW,225,4.1,4.1,55,0.00,OVC,,0.00,WeatherDisplay:10.37,2013-05-29 23:21:00,
2013-05-29 19:26:00,83.5,65.6,29.91,SW,225,2.6,2.6,55,0.00,OVC,,0.00,WeatherDisplay:10.37,2013-05-29 23:26:00,
2013-05-29 19:31:00,83.3,65.4,29.91,WSW,248,2.3,2.3,55,0.00,OVC,,0.00,WeatherDisplay:10.37,2013-05-29 23:31:00,
2013-05-29 19:36:00,83.1,65.8,29.91,SW,225,1.8,1.8,56,0.00,OVC,,0.00,WeatherDisplay:10.37,2013-05-29 23:36:00,
2013-05-29 19:41:00,82.9,65.6,29.91,South,180,2.3,2.3,56,0.00,OVC,,0.00,WeatherDisplay:10.37,2013-05-29 23:41:00,
2013-05-29 19:46:00,82.9,65.6,29.92,SW,225,2.3,2.3,56,0.00,OVC,,0.00,WeatherDisplay:10.37,2013-05-29 23:46:00,
2013-05-29 19:51:00,82.4,65.6,29.92,West,270,0.0,0.2,57,0.00,OVC,,0.00,WeatherDisplay:10.37,2013-05-29 23:51:00,
2013-05-29 19:56:00,82.2,66.0,29.92,South,180,2.3,2.3,58,0.00,OVC,,0.00,WeatherDisplay:10.37,2013-05-29 23:56:00,
2013-05-29 20:01:00,82.2,65.5,29.92,South,180,2.3,2.3,57,0.00,OVC,,0.00,WeatherDisplay:10.37,2013-05-30 00:01:00,
2013-05-29 20:06:00,82.0,65.3,29.91,South,180,2.3,2.3,57,0.00,OVC,,0.00,WeatherDisplay:10.37,2013-05-30 00:06:00,
2013-05-29 20:11:00,82.2,65.5,29.91,SSW,202,1.2,1.4,57,0.00,OVC,,0.00,WeatherDisplay:10.37,2013-05-30 00:11:00,
2013-05-29 20:16:00,81.5,64.8,29.91,WSW,248,0.0,0.6,57,0.00,OVC,,0.00,WeatherDisplay:10.37,2013-05-30 00:16:00,
2013-05-29 20:21:00,81.1,65.0,29.91,SSW,202,0.0,0.1,58,0.00,OVC,,0.00,WeatherDisplay:10.37,2013-05-30 00:21:00,
2013-05-29 20:26:00,80.8,65.1,29.92,South,180,0.0,0.0,59,0.00,OVC,,0.00,WeatherDisplay:10.37,2013-05-30 00:26:00,
2013-05-29 20:31:00,80.2,65.1,29.92,WSW,248,0.0,0.0,60,0.00,OVC,,0.00,WeatherDisplay:10.37,2013-05-30 00:31:00,
2013-05-29 20:36:00,80.1,65.4,29.92,WNW,292,1.2,1.2,61,0.00,OVC,,0.00,WeatherDisplay:10.37,2013-05-30 00:36:00,
2013-05-29 20:41:00,79.5,65.4,29.92,SW,225,0.0,0.1,62,0.00,OVC,,0.00,WeatherDisplay:10.37,2013-05-30 00:41:00,
2013-05-29 20:46:00,79.3,65.6,29.93,WSW,248,0.0,0.0,63,0.00,OVC,,0.00,WeatherDisplay:10.37,2013-05-30 00:46:00,
2013-05-29 20:51:00,79.0,65.3,29.93,SW,225,1.2,0.0,63,0.00,OVC,,0.00,WeatherDisplay:10.37,2013-05-30 00:51:00,
2013-05-29 20:56:00,79.0,65.8,29.93,WSW,248,0.0,0.0,64,0.00,OVC,,0.00,WeatherDisplay:10.37,2013-05-30 00:56:00,
2013-05-29 21:01:00,78.4,65.7,29.93,WSW,248,0.0,0.0,65,0.00,OVC,,0.00,WeatherDisplay:10.37,2013-05-30 01:01:00,
2013-05-29 21:06:00,78.3,65.5,29.93,WNW,292,0.0,0.0,65,0.00,OVC,,0.00,WeatherDisplay:10.37,2013-05-30 01:06:00,
2013-05-29 21:11:00,78.1,65.8,29.93,WSW,248,0.0,0.0,66,0.00,OVC,,0.00,WeatherDisplay:10.37,2013-05-30 01:11:00,
2013-05-29 21:16:00,77.5,65.7,29.93,WSW,248,0.0,0.0,67,0.00,OVC,,0.00,WeatherDisplay:10.37,2013-05-30 01:16:00,
2013-05-29 21:21:00,77.5,66.1,29.93,WSW,248,0.0,0.0,68,0.00,OVC,,0.00,WeatherDisplay:10.37,2013-05-30 01:21:00,
2013-05-29 21:26:00,77.2,65.8,29.93,WSW,248,0.0,0.0,68,0.00,OVC,,0.00,WeatherDisplay:10.37,2013-05-30 01:26:00,
2013-05-29 21:31:00,77.0,66.0,29.93,WSW,248,0.0,0.0,69,0.00,OVC,,0.00,WeatherDisplay:10.37,2013-05-30 01:31:00,
2013-05-29 21:36:00,76.6,65.7,29.93,WSW,248,0.0,0.0,69,0.00,OVC,,0.00,WeatherDisplay:10.37,2013-05-30 01:36:00,
2013-05-29 21:41:00,76.5,65.9,29.93,South,180,0.0,0.0,70,0.00,OVC,,0.00,WeatherDisplay:10.37,2013-05-30 01:41:00,
2013-05-29 21:46:00,76.5,66.4,29.94,WSW,248,0.0,0.0,71,0.00,OVC,,0.00,WeatherDisplay:10.37,2013-05-30 01:46:00,
2013-05-29 21:51:00,76.1,66.0,29.94,SW,225,0.0,0.0,71,0.00,OVC,,0.00,WeatherDisplay:10.37,2013-05-30 01:51:00,
2013-05-29 21:56:00,76.1,66.0,29.94,SW,225,1.2,1.2,71,0.00,OVC,,0.00,WeatherDisplay:10.37,2013-05-30 01:56:00,
2013-05-29 22:01:00,75.9,65.8,29.94,WSW,248,0.0,0.1,71,0.00,OVC,,0.00,WeatherDisplay:10.37,2013-05-30 02:01:00,
2013-05-29 22:06:00,75.9,66.2,29.95,WSW,248,1.2,1.2,72,0.00,OVC,,0.00,WeatherDisplay:10.37,2013-05-30 02:06:00,
2013-05-29 22:11:00,75.7,66.1,29.95,SW,225,0.0,0.1,72,0.00,OVC,,0.00,WeatherDisplay:10.37,2013-05-30 02:11:00,
2013-05-29 22:16:00,75.7,66.1,29.95,West,270,0.0,0.0,72,0.00,OVC,,0.00,WeatherDisplay:10.37,2013-05-30 02:16:00,
2013-05-29 22:21:00,75.6,66.3,29.95,West,270,0.0,0.0,73,0.00,OVC,,0.00,WeatherDisplay:10.37,2013-05-30 02:21:00,
2013-05-29 22:26:00,75.4,66.1,29.96,WSW,248,0.0,0.0,73,0.00,OVC,,0.00,WeatherDisplay:10.37,2013-05-30 02:26:00,
2013-05-29 22:31:00,75.4,66.1,29.96,WSW,248,0.0,0.0,73,0.00,OVC,,0.00,WeatherDisplay:10.37,2013-05-30 02:31:00,
2013-05-29 22:36:00,75.2,65.9,29.96,WSW,248,0.0,0.0,73,0.00,OVC,,0.00,WeatherDisplay:10.37,2013-05-30 02:36:00,
2013-05-29 22:41:00,75.2,65.9,29.96,WSW,248,0.0,0.0,73,0.00,OVC,,0.00,WeatherDisplay:10.37,2013-05-30 02:41:00,
2013-05-29 22:46:00,75.2,65.9,29.97,WSW,248,0.0,0.0,73,0.00,OVC,,0.00,WeatherDisplay:10.37,2013-05-30 02:46:00,
2013-05-29 22:51:00,75.2,65.9,29.97,WSW,248,0.0,0.0,73,0.00,OVC,,0.00,WeatherDisplay:10.37,2013-05-30 02:51:00,
2013-05-29 22:56:00,75.4,66.1,29.97,WSW,248,0.0,0.0,73,0.00,OVC,,0.00,WeatherDisplay:10.37,2013-05-30 02:56:00,
2013-05-29 23:01:00,75.2,66.3,29.97,West,270,0.0,0.0,74,0.00,OVC,,0.00,WeatherDisplay:10.37,2013-05-30 03:01:00,
2013-05-29 23:06:00,75.2,66.3,29.98,SW,225,0.0,0.0,74,0.00,OVC,,0.00,WeatherDisplay:10.37,2013-05-30 03:06:00,
2013-05-29 23:11:00,75.2,65.9,29.98,SW,225,1.2,1.2,73,0.00,OVC,,0.00,WeatherDisplay:10.37,2013-05-30 03:11:00,
2013-05-29 23:16:00,75.4,66.1,29.98,WSW,248,0.0,0.1,73,0.00,OVC,,0.00,WeatherDisplay:10.37,2013-05-30 03:16:00,
2013-05-29 23:21:00,75.4,66.1,29.98,WSW,248,0.0,0.0,73,0.00,OVC,,0.00,WeatherDisplay:10.37,2013-05-30 03:21:00,
2013-05-29 23:26:00,75.2,65.9,29.99,SW,225,0.0,0.0,73,0.00,OVC,,0.00,WeatherDisplay:10.37,2013-05-30 03:26:00,
2013-05-29 23:31:00,75.4,66.1,29.99,SW,225,0.0,0.0,73,0.00,OVC,,0.00,WeatherDisplay:10.37,2013-05-30 03:31:00,
2013-05-29 23:36:00,75.2,66.3,29.99,SW,225,0.0,0.0,74,0.00,OVC,,0.00,WeatherDisplay:10.37,2013-05-30 03:36:00,
2013-05-29 23:41:00,75.2,65.9,29.99,SSW,202,0.0,0.0,73,0.00,OVC,,0.00,WeatherDisplay:10.37,2013-05-30 03:41:00,
2013-05-29 23:46:00,75.2,65.9,29.98,SW,225,0.0,0.0,73,0.00,OVC,,0.00,WeatherDisplay:10.37,2013-05-30 03:46:00,
2013-05-29 23:51:00,75.4,66.1,29.98,SSW,202,1.2,0.0,73,0.00,OVC,,0.00,WeatherDisplay:10.37,2013-05-30 03:51:00,
2013-05-29 23:56:00,75.4,66.1,29.98,SW,225,1.2,1.2,73,0.00,OVC,,0.00,WeatherDisplay:10.37,2013-05-30 03:56:00,